www.pogodaiklimat.ru

Погода и климат >> Архив погоды >> Узбекистан >> Гурлен


ПОГОДА в Гурлене

  • Прогноз погоды в Гурлене
  • Монитор погоды в Гурлене

АРХИВ ПОГОДЫ в Гурлене

Время (UTC), дата Ветер
(напр.,м/с)
 
Видим.   Явления Облачность Т
(С)
Тd
(С)
f
(%)
Тe
(С)
Тes
(С)
Комфортность P
(гПа)
Po
(гПа)
Тmin
(С)
Tmax
(С)
R
(мм)
R24
(мм)
S
(см)
00 17.09 штиль 0 н/о ясно +13.2 +13.0 99 +13 +13 1009.0
03 17.09 З 2 10 км ясно +15.1 +11.5 79 +15 +16 1009.0 +12.0
09 17.09 ЮВ 3 10 км ясно +28.1 +20.4 63 +35 +44 очень
душно
1006.0
12 17.09 ЮВ 3 10 км ясно +27.0 +15.9 51 +30 +33 душно 1004.0
15 17.09 ЮВ 2 н/о ясно +23.9 +15.4 59 +27 +27 жарко 1004.0 +28.2
18 17.09 ЮВ 3 н/о ясно +20.5 +12.7 61 +23 +23 комфорт 1003.0 +28.2
21 17.09 ЮВ 1 н/о ясно +17.0 +10.6 66 +18 +18 1002.0
00 18.09 ЮВ 3 н/о ясно +15.4 +10.3 72 +15 +15 1001.0
03 18.09 ЮВ 2 10 км ясно +16.2 +10.5 69 +16 +17 1001.0 +12.5
06 18.09 ЮЗ 3 10 км ясно +26.0 +17.0 58 +30 +38 душно 1000.0 +12.5
09 18.09 ЮЗ 3 10 км 4/0
[Ac trans]
+32.3 +16.7 39 +35 +43 очень
душно
999.0
12 18.09 СЗ 3 10 км ясно +30.7 +15.1 39 +33 +35 душно 999.0
15 18.09 СЗ 1 н/о ясно +24.0 +20.0 78 +29 +29 душно 1002.0 +32.8
18 18.09 штиль 0 н/о ясно +20.1 +18.7 92 +23 +23 комфорт 1004.0 +32.8
21 18.09 штиль 0 н/о ясно +16.8 +14.4 86 +17 +17 1005.0
00 19.09 С 1 н/о ясно +15.1 +13.5 90 +16 +16 1006.0
03 19.09 штиль 0 10 км ясно +15.2 +13.6 90 +15 +16 1006.0 +13.2
06 19.09 штиль 0 10 км ясно +25.8 +17.7 61 +30 +42 душно 1007.0 +13.2
09 19.09 СЗ 2 10 км ясно +29.4 +17.3 48 +33 +45 душно 1006.0
12 19.09 З 2 10 км ясно +30.0 +17.9 48 +34 +37 очень
душно
1006.0
15 19.09 ЮЗ 1 н/о ясно +24.5 +20.4 78 +30 +30 очень
душно
1006.0 +30.2
18 19.09 З 1 н/о ясно +19.2 +16.4 84 +22 +22 комфорт 1007.0 +30.2
00 20.09 В 1 н/о ясно +15.4 +13.8 90 +16 +16 1007.0
03 20.09 штиль 0 10 км ясно +15.0 +12.6 86 +15 +16 1008.0 +13.2
06 20.09 ЮВ 2 10 км ясно +26.4 +22.1 77 +34 +43 очень
душно
1008.0 +13.2
12 20.09 Ю 2 10 км ясно +32.4 +23.6 60 +44 +46 опасность
перегрева
1003.0
18 20.09 штиль 0 н/о ясно +19.9 +13.0 64 +21 +21 комфорт 1005.0 +32.7
21 20.09 штиль 0 н/о ясно +16.8 +11.2 70 +17 +17 1003.0
00 21.09 штиль 0 н/о ясно +15.5 +11.4 77 +15 +15 1002.0
03 21.09 В 3 10 км ясно +18.2 +15.3 83 +19 +19 1001.0 +13.4
06 21.09 В 2 10 км ясно +26.0 +18.1 62 +31 +39 очень
душно
1000.0 +13.4
09 21.09 С 2 10 км ясно +31.2 +12.7 32 +32 +43 жарко 997.0
12 21.09 СЗ 1 10 км ясно +32.4 +22.0 54 +41 +44 опасность
перегрева
993.0
15 21.09 штиль 0 н/о ясно +25.4 +23.9 91 +35 +35 очень
душно
994.0 +33.1
18 21.09 штиль 0 н/о ясно +21.2 +19.6 91 +26 +26 душно 994.0 +33.1
21 21.09 штиль 0 н/о ясно +19.4 +17.4 88 +21 +21 комфорт 994.0
00 22.09 ЮЗ 1 н/о ясно +17.2 +15.3 89 +18 +18 993.0
03 22.09 З 2 10 км 4/0
[Ac und]
+16.4 +12.0 75 +17 +17 996.0 +15.2
06 22.09 С 7 10 км 10/0
[Ac As]
+18.1 +11.3 64 +17 +18 1000.0 +15.2
09 22.09 С 9 10 км 10/0
[Ac As]
+17.4 +12.0 71 +16 +16 1004.0
12 22.09 СЗ 5 10 км 3/0
[Ac lent]
+18.3 +12.4 68 +18 +19 1004.0
15 22.09 СЗ 2 н/о ясно +14.8 +11.9 83 +14 +14 1009.0 +19.2
18 22.09 штиль 0 н/о ясно +11.3 +10.7 96 +11 +11 1013.0 +19.2
21 22.09 штиль 0 н/о ясно +10.3 +7.8 84 +10 +10 1014.0
00 23.09 штиль 0 н/о ясно +9.6 +6.8 83 +9 +9 1015.0

 

Местоположение метеостанции Гурлен (Хорезмская область, Узбекистан): широта 41.85 долгота 60.39 высота над уровнем моря 100 м.

В архиве по умолчанию представлена погода в Гурлене за последнюю неделю. Архивные данные за месяц целиком и за предыдущие месяцы, начиная с января 2011 года, Вы можете получить, выбрав интересующий диапазон дат из раскрывающегося списка и нажав кнопку "Ввод!".


*Определитесь, кто Вы:
робот инопланетянин человек

Внимание! Время в таблицах - всемирное. Для получения местного времени необходимо прибавить поправку, которая равна 5 ч.

Смотрите также архив погоды в соседних городах и на ближайших метеорологических станциях:

Погода в Ургенче (Хорезмская область, Узбекистан) (35 км)
Погода в Дашогузе (Дашогузский велаят, Туркменистан) (49 км)
Погода в Хиве (Хорезмская область, Узбекистан) (50 км)
Погода в Тахиаташе (Каракалпакстан, Узбекистан) (89 км)
Погода в Нукусе (Каракалпакстан, Узбекистан) (92 км)
Погода в Тахтакупыре (Каракалпакстан, Узбекистан) (95 км)
Погода в Тюя-Муюне (Лебапский велаят, Туркменистан) (109 км)
Погода в Кенеургенче (Дашогузский велаят, Туркменистан) (115 км)
Погода в Чимбае (Каракалпакстан, Узбекистан) (131 км)
Погода в Шах-Сенеме (Дашогузский велаят, Туркменистан) (142 км)

Пояснения к столбцам:

Ветер - указаны скорость ветра в м/с - средняя за 10 мин, порывы в срок и между сроками (в фигурных скобках) и направление, откуда дует ветер: С - северный, СВ - северо-восточный, В - восточный, ЮВ - юго-восточный, Ю - южный, ЮЗ - юго-западный, З - западный, СЗ - северо-западный.
Видимость - горизонтальная дальность видимости в метрах или километрах. При видимости от 1 до 10 км при отсутствии осадков обычно наблюдается дымка, при ухудшении видимости до 1 км и менее - туман. В сухую погоду видимость может ухудшаться дымом, пылью или мглою.
Явления - указаны атмосферные явления, наблюдавшиеся в срок или в последний час перед сроком; фигурными скобками обозначены явления, наблюдавшиеся между сроками (за 1-3 часа до срока); квадратными скобками обозначены град или гололедные отложения с указанием их диаметра в мм.
Облачность - указаны через наклонную черту общая и нижняя облачность в баллах и высота нижней границы облаков в метрах; квадратными скобками обозначены формы облаков: Ci - перистые, Cs - перисто-слоистые, Cc - перисто-кучевые, Ac - высококучевые, As - высокослоистые, Sc - слоисто-кучевые, Ns - слоисто-дождевые, Cu - кучевые, Cb - кучево-дождевые. Подробнее классификацию облаков см. в Атласе облаков (PDF).
T - Температура воздуха - температура, измеренная на высоте 2 м над землей.
Td - Температура точки росы - температура, при понижении до которой содержащийся в воздухе водяной пар достигнет насыщения.
f - Относительная влажность воздуха - влажноcть воздуха, измеренная на высоте 2 м над землей.
Te - Эффективная температура - температура, которую ощущает одетый по сезону человек в тени. Характеристика душности погоды. При расчете учитывается влияние влажности воздуха и скорости ветра на теплоощущения человека.
Tes - Эффективная температура на солнце - температура, которую ощущает человек, с поправкой на солнечный нагрев. Характеристика знойности погоды. Зависит от высоты солнца над горизонтом, облачности и скорости ветра. Ночью, в пасмурную погоду, а также при ветре 12 м/с и более поправка равна нулю.
P - Атмосферное давление - приведенное к уровню моря атмосферное давление.
Po - Атмосферное давление - измеренное на уровне метеостанции атмосферное давление.
Tmin - Минимальная температура - минимум температуры воздуха на высоте 2 м над землей.
Tmax - Максимальная температура - максимум температуры воздуха на высоте 2 м над землей.
R - Количество осадков - Количество выпавших осадков за период времени, мм. При наведении курсора мыши на число - период времени, за который выпало указанное количество осадков.
R24 - Количество осадков - Количество выпавших осадков за 24 часа, мм.
S - Снежный покров - Высота снежного покрова, см. При наведении курсора мыши на число - состояние снежного покрова и степень покрытия местности в баллах.